Location: Cucq
(50.4773°N, 1.6202°E)
Time: 07:56:15
(UTC+00:00)

ATLAS 3B R/B - Pass Details

Date: 07 August 2020
Orbit: 1016 x 1179 km, 63.8° (Epoch: 22 September)

Event Time Altitude Azimuth Distance (km) Brightness Sun altitude
Exits shadow 01:40:58 11° 262° (W) 2,736 4.5 -19.6°
Maximum altitude 01:46:56 41° 331° (NNW) 1,460 3.7 -19.1°
Drops below altitude 10° 01:53:14 10° 40° (NE) 2,866 6.1 -18.7°
Sets 01:56:06 0° 48° (NE) 3,843 7.0 -18.4°
